Weather History for KLEB - March, 2013

Change the Weather History Date:

Friday, March 29, 2013

  Actual Average Record
Temperature  
Mean Temperature 40 °F -  
Max Temperature 51 °F 51 °F 83 °F (1946)
Min Temperature 30 °F 27 °F 0 °F (1974)
Degree Days  
Heating Degree Days 25    
Moisture  
Dew Point 29 °F    
Average Humidity 66    
Maximum Humidity 85    
Minimum Humidity 44    
Precipitation  
Precipitation 0.00 in - - ()
Sea Level Pressure  
Sea Level Pressure 30.05 in    
Wind  
Wind Speed 3 mph (NW)    
Max Wind Speed 13 mph    
Max Gust Speed 20 mph    
Visibility 10 miles    
Events      
Averages and records for this station are not official NWS values.
T = Trace of Precipitation, MM = Missing Value Source: NWS Daily Summary

Daily Weather History Graph

Daily Weather History Graph

Search for Another Location

Airport or City:

Trip Planner

Search our weather history database for the weather conditions in past years. The results will help you decide how hot, cold, wet, or windy it might be!

Date:

Astronomy

Mar. 29, 2013 Rise Set
Actual Time 6:35 AM EDT 7:12 PM EDT
Civil Twilight 6:07 AM EDT 7:41 PM EDT
Nautical Twilight 5:32 AM EDT 8:15 PM EDT
Astronomical Twilight 4:57 AM EDT 8:51 PM EDT
Moon 10:16 PM EDT (3/29) 7:37 AM EDT (3/29)
Length of Visible Light 13h 34m
Length of Day
12h 36m
Waning Gibbous, 93% of the Moon is Illuminated
Mar 29
Waning Gibbous
Apr 3
Last Quarter
Apr 10
New
Apr 18
First Quarter
Apr 25
Full

Hourly Weather History & Observations

Time (EDT) Temp. Windchill Dew Point Humidity Pressure Visibility Wind Dir Wind Speed Gust Speed Precip Events Conditions
12:53 AM 30.0 °F - 26.1 °F 85% 30.06 in 10.0 mi Calm Calm - N/A   Mostly Cloudy
1:53 AM 30.9 °F - 27.0 °F 85% 30.06 in 10.0 mi Calm Calm - N/A   Overcast
2:53 AM 30.0 °F 26.5 °F 26.1 °F 85% 30.05 in 10.0 mi South 3.5 mph - N/A   Overcast
3:53 AM 30.9 °F - 27.0 °F 85% 30.05 in 10.0 mi Calm Calm - N/A   Overcast
4:53 AM 32.0 °F - 28.0 °F 85% 30.05 in 10.0 mi Calm Calm - N/A   Overcast
5:53 AM 32.0 °F - 28.0 °F 85% 30.06 in 10.0 mi Calm Calm - N/A   Overcast
6:53 AM 32.0 °F 28.7 °F 28.0 °F 85% 30.06 in 10.0 mi South 3.5 mph - N/A   Overcast
7:36 AM 33.8 °F - 28.4 °F 81% 30.05 in 10.0 mi Calm Calm - N/A   Mostly Cloudy
7:53 AM 36.0 °F - 28.9 °F 76% 30.07 in 10.0 mi Calm Calm - N/A   Partly Cloudy
8:53 AM 42.1 °F - 30.0 °F 62% 30.07 in 10.0 mi Calm Calm - N/A   Clear
9:53 AM 46.0 °F 41.0 °F 30.9 °F 56% 30.06 in 10.0 mi North 10.4 mph 18.4 mph N/A   Scattered Clouds
10:02 AM 48.2 °F - 30.2 °F 50% 30.05 in 10.0 mi North 10.4 mph - N/A   Mostly Cloudy
10:22 AM 48.2 °F - 30.2 °F 50% 30.05 in 10.0 mi North 5.8 mph - N/A   Overcast
10:53 AM 48.9 °F - 30.9 °F 50% 30.06 in 10.0 mi North 9.2 mph - N/A   Overcast
11:53 AM 50.0 °F - 30.0 °F 46% 30.05 in 10.0 mi NNW 6.9 mph - N/A   Overcast
12:53 PM 50.0 °F - 30.0 °F 46% 30.03 in 10.0 mi Variable 3.5 mph - N/A   Mostly Cloudy
1:53 PM 48.9 °F - 30.0 °F 48% 30.02 in 10.0 mi NW 10.4 mph - N/A   Overcast
2:53 PM 50.0 °F - 28.9 °F 44% 30.01 in 10.0 mi NW 12.7 mph 19.6 mph N/A   Overcast
3:53 PM 48.0 °F - 28.0 °F 46% 30.01 in 10.0 mi West 9.2 mph - N/A   Overcast
4:53 PM 50.0 °F - 28.9 °F 44% 30.01 in 10.0 mi NW 6.9 mph - N/A   Overcast
5:53 PM 46.9 °F - 28.9 °F 50% 30.02 in 10.0 mi NW 8.1 mph - N/A   Mostly Cloudy
6:53 PM 44.1 °F - 30.9 °F 60% 30.04 in 10.0 mi Calm Calm - N/A   Overcast
7:53 PM 39.9 °F - 30.0 °F 68% 30.05 in 10.0 mi Calm Calm - N/A   Overcast
8:53 PM 39.0 °F - 30.0 °F 70% 30.06 in 10.0 mi Calm Calm - N/A   Overcast
9:53 PM 34.0 °F - 28.0 °F 79% 30.06 in 10.0 mi Calm Calm - N/A   Overcast
10:53 PM 33.1 °F - 28.0 °F 82% 30.07 in 10.0 mi Calm Calm - N/A   Overcast
11:53 PM 34.0 °F - 28.0 °F 79% 30.06 in 10.0 mi Calm Calm - N/A   Mostly Cloudy